FLOCK 3S-3 (43788 NORAD) Tracking and Keplerian Element Data

This shows tracking and keplerian element data for the satellite.

Feedback or suggestion? Click here.




ElementValue
Catalog43788
NameFLOCK 3S-3
Epoch Orbit425
Epoch Day1.26253361
Epoch Year2019
RAAN75.1378
Inclination97.7646
Eccentricity0.0015507
Argument of Perigee166.8097
Mean Anonmoly193.3532
Mean Motion14.950878
Decay Rate1.89E-06
L11 43788U 18099AG 19001.26253361 .00000189 00000-0 22513-4 0 9991
L22 43788 97.7646 75.1378 0015507 166.8097 193.3532 14.95087800 4256

Live tracking and technical data element details for FLOCK 3S-3 (NORAD 43788). FLOCK 3S-3 can be tracked NOW for your location showing map with azimuth and elevation plus other details from your city location.

Track the satellite on the map from your city or location and see movement details for azimuth, elevation, latitude, longitude, range, height, and movement on the map or in text.







IsCatalogInMostPopularTable: catalog: 43788, numindb: 21
Update: records affected: 1



GetName: 43788 FLOCK 3S-3

Hit Count: updated at: Wed, 23 Jan 2019 03:55:18 GMT